Wind_Speed
20 20 23 23 26 26 27 28 27 30 30 28 26 25 21 21 22 20 20 21 19 18 18 17 11 22 15 13 14 4 6 23 20 21 24 22 16 9 6 8 11 3 3 9 14 19 12
21 23 21 28 27 25 26 27 29 29 29 28 27 25 24 23 23 22 19 21 19 20 21 22 22 19 19 9 11 7 7 18 24 24 23 23 13 16 7 5 8 2 13 13 13 9 7
21 24 25 26 25 28 29 32 29 29 27 26 25 22 21 22 22 19 18 20 19 18 22 20 9 20 18 23 6 18 9 17 21 21 21 25 13 11 6 0 8 5 5 3 6 6 4
21 24 25 26 28 29 30 32 31 28 28 25 23 21 21 20 20 19 18 17 16 15 18 20 21 17 8 22 12 18 15 14 12 17 18 23 14 8 4 3 3 5 4 1 4 4 9
24 25 26 26 29 28 28 30 27 26 26 23 20 19 18 18 21 19 18 17 14 14 13 23 20 16 7 14 24 22 19 17 14 13 19 18 16 5 6 5 3 3 2 4 7 9 6
23 25 28 27 28 28 28 27 27 24 24 22 23 20 20 20 19 19 15 17 16 14 13 12 16 9 9 12 30 22 18 17 11 13 17 10 5 3 2 4 6 6 4 3 5 4 3
25 25 27 28 29 30 28 27 28 26 24 24 23 23 18 19 17 25 17 15 3 1 10 3 14 4 6 16 24 25 19 18 14 13 5 9 2 9 14 8 4 3 1 2 5 4 4
26 24 24 29 28 29 28 26 27 28 23 25 23 19 18 20 21 15 13 6 3 4 4 15 14 3 12 20 14 25 21 10 8 4 8 3 3 8 9 6 5 1 3 5 6 1 3
26 27 24 30 29 29 28 28 27 30 28 24 18 19 21 22 21 21 5 5 5 6 2 9 9 7 20 16 7 20 23 10 6 5 4 5 5 8 6 6 5 2 3 2 4 5 2
26 27 25 30 30 29 28 26 26 28 30 22 19 22 26 28 18 5 9 3 2 3 1 4 4 5 11 13 5 19 18 9 3 5 5 4 4 7 6 3 4 3 1 3 4 5 4
24 26 27 30 29 29 29 29 29 28 29 22 22 30 31 19 14 10 7 2 10 3 3 7 5 22 14 2 21 13 8 3 4 7 5 3 3 5 4 3 4 3 5 4 2 3 4
25 27 27 29 29 29 29 29 28 30 27 28 29 28 18 8 3 2 6 11 6 1 3 4 7 10 7 8 3 12 3 6 9 6 6 2 1 2 4 4 5 6 4 6 4 3 2
24 28 27 30 28 29 30 29 30 30 30 28 23 16 14 9 7 7 13 5 2 1 3 4 8 9 12 4 5 4 4 4 4 5 3 2 2 2 4 7 4 5 5 3 4 2 6
24 28 28 29 28 29 30 30 32 33 31 21 13 13 13 11 10 8 8 4 3 3 2 9 10 12 6 8 7 7 5 4 2 4 4 4 0 4 2 5 6 3 5 4 5 2 4
24 27 29 29 27 29 30 31 33 29 25 17 16 21 22 20 11 2 5 3 4 4 2 9 13 6 4 5 6 4 1 5 2 2 5 4 1 2 3 3 6 3 3 3 2 1 3
22 26 28 25 27 28 30 31 30 25 18 14 20 20 17 12 9 7 3 6 2 4 13 5 5 0 4 4 4 3 5 3 3 6 2 5 4 2 2 4 1 4 6 3 2 1 4
22 25 27 25 26 28 30 29 28 21 12 7 6 6 9 8 8 5 3 5 4 13 5 2 4 4 7 5 4 4 9 2 6 4 3 2 4 4 4 4 6 3 3 2 3 4 3
21 24 25 26 27 28 29 29 26 17 10 6 5 3 6 5 4 3 2 3 6 5 7 2 5 7 6 4 4 3 8 4 14 6 5 1 4 3 7 3 5 4 5 6 4 4 2
19 22 25 26 25 25 28 28 25 19 11 7 4 3 9 6 3 2 2 4 6 2 3 2 3 3 5 5 5 3 5 4 17 6 8 3 2 2 2 2 2 4 5 4 2 1 6
17 20 23 25 27 26 26 26 24 17 7 5 2 3 5 6 4 3 5 5 4 8 8 7 5 14 4 3 3 4 3 5 8 7 11 7 3 5 5 4 3 3 4 8 9 3 4
14 17 20 23 25 26 24 23 22 17 11 4 5 2 3 3 3 1 2 5 5 6 6 5 4 6 3 3 6 5 3 3 6 3 3 4 3 3 5 7 5 5 8 8 12 18 8
13 14 18 20 22 24 24 21 21 20 9 10 4 4 6 5 5 3 1 4 6 4 5 4 5 2 3 4 2 5 6 3 4 1 3 1 1 2 4 5 7 6 10 11 14 15 18
15 14 15 17 19 21 22 20 18 18 15 9 7 5 4 6 4 2 2 0 4 2 5 5 2 4 7 3 7 7 6 14 7 7 3 5 4 1 4 3 5 5 8 11 5 6 8
22 11 17 15 16 18 18 20 17 14 13 9 9 5 5 4 2 2 1 1 3 3 2 3 6 3 2 3 8 8 8 9 9 4 6 4 4 1 4 4 1 5 2 6 8 7 10
26 11 14 16 15 16 17 16 16 13 10 7 7 4 3 3 5 5 6 1 4 4 3 2 4 4 2 3 3 2 1 1 4 4 6 4 4 2 2 2 6 3 3 4 5 8 5
23 12 12 17 13 13 15 15 15 12 9 7 2 6 2 4 5 5 3 4 3 2 3 1 2 2 2 2 2 3 4 5 3 2 4 4 3 3 2 2 3 3 1 3 4 4 5
22 11 10 15 14 11 13 14 14 13 10 6 1 6 4 5 9 3 4 2 2 3 2 1 2 2 1 2 2 3 3 3 5 6 4 3 3 4 4 3 6 7 3 6 2 5 6
18 11 7 15 14 10 11 10 11 11 12 9 4 4 7 5 22 16 8 5 4 5 4 4 3 1 2 2 3 2 2 2 1 3 5 6 6 4 3 3 7 4 5 3 4 10 9
12 10 8 13 16 12 11 11 8 9 9 11 11 8 9 11 13 15 18 18 16 8 3 11 2 4 6 3 1 1 1 1 2 3 1 3 5 4 7 5 6 4 6 13 12 14 13
Wind_Direction
339 337 343 336 326 329 332 331 322 322 322 321 315 309 303 300 301 299 298 297 296 283 252 238 308 221 201 206 234 140 164 174 176 187 186 196 194 185 174 184 234 223 259 248 251 268 274
346 346 337 330 332 339 334 329 328 329 325 322 318 311 309 300 294 292 292 293 294 292 239 233 243 195 194 216 216 177 186 177 187 191 196 199 196 197 207 192 167 215 229 249 265 253 256
346 335 331 335 338 326 326 328 329 327 325 323 320 319 312 303 299 298 300 297 293 284 228 230 265 196 200 220 199 194 193 189 187 192 191 196 169 195 205 271 203 165 165 299 236 241 250
337 336 338 341 331 335 337 337 333 334 330 328 323 318 315 312 309 307 303 293 290 274 234 228 235 197 220 223 175 174 179 165 172 194 201 187 200 219 185 180 107 131 73 245 257 262 246
337 339 341 336 337 337 339 335 335 335 331 335 335 329 326 320 314 308 304 287 289 275 260 241 240 181 222 205 204 176 183 169 163 184 184 187 193 178 170 134 49 9 178 219 303 215 223
341 344 339 334 337 339 338 335 333 334 334 339 335 328 323 320 318 317 309 296 291 267 263 245 236 168 204 190 194 185 193 188 170 170 154 166 144 138 141 138 192 197 190 217 231 301 219
343 345 338 333 337 340 338 337 337 335 337 339 325 323 326 327 325 322 306 324 331 231 198 281 159 221 211 179 187 191 183 175 178 171 174 159 163 181 192 204 93 132 159 277 270 292 329
342 339 339 336 339 342 339 342 336 338 336 335 323 324 322 326 320 334 308 296 293 10 299 212 195 314 153 158 157 190 181 166 167 158 125 100 150 148 190 212 246 309 271 276 280 316 315
344 343 340 338 341 342 341 344 338 334 341 334 326 324 324 324 316 315 325 285 294 317 35 245 210 166 135 156 130 168 179 161 137 131 147 127 182 184 166 164 158 121 184 224 256 321 99
347 340 341 340 345 343 344 340 342 336 336 332 324 324 321 319 317 293 323 306 266 224 59 145 185 200 158 133 74 162 165 144 142 145 121 124 180 153 131 152 139 136 76 94 43 35 273
347 346 346 341 347 346 343 343 346 339 335 335 328 325 325 317 281 260 268 360 114 179 147 135 177 147 150 166 134 178 144 133 131 118 99 186 156 124 123 190 144 152 99 84 60 29 3
349 348 347 346 349 346 350 347 346 338 340 334 328 333 338 0 39 87 148 143 122 77 140 127 133 149 113 115 59 143 148 95 121 96 46 65 45 96 140 86 119 149 79 49 52 57 330
351 351 351 351 351 351 351 350 346 344 339 337 341 360 12 63 61 135 128 127 69 86 318 123 133 131 123 96 114 116 155 102 123 127 123 350 12 24 107 83 26 93 73 355 351 337 233
353 356 353 350 350 354 353 352 352 351 354 353 37 49 49 65 68 113 126 26 27 335 20 134 128 102 94 112 117 133 123 125 58 91 110 138 202 189 219 149 172 167 137 157 231 236 283
359 356 351 349 354 356 354 355 358 360 7 50 73 64 66 64 84 121 337 48 0 345 56 124 96 83 99 68 109 119 100 151 159 166 134 123 301 148 157 133 133 200 149 174 79 291 27
3 358 352 355 356 355 357 0 5 8 24 85 67 66 62 54 59 46 9 353 302 271 114 84 74 33 109 113 104 107 157 213 194 183 140 202 102 140 118 77 96 138 149 73 32 300 267
2 2 353 353 355 358 359 2 7 13 31 75 65 67 56 46 61 40 34 353 342 126 6 47 131 90 105 120 104 146 185 262 189 197 175 355 105 310 119 195 178 135 170 82 114 163 192
2 1 357 0 1 1 0 5 9 21 37 38 64 44 6 22 80 78 339 342 321 255 251 218 93 109 135 114 138 148 193 247 187 164 156 283 105 162 208 240 177 163 177 149 133 267 242
0 3 358 358 360 1 1 7 4 17 25 21 47 347 24 32 70 357 221 228 217 283 8 125 94 130 132 138 143 180 165 297 183 154 158 185 57 70 353 59 58 195 193 192 206 121 197
358 359 360 358 4 2 5 14 3 13 34 29 64 28 14 48 52 7 353 351 9 22 39 72 108 129 127 131 112 131 102 25 137 162 172 130 150 165 183 205 145 190 198 206 198 197 233
358 357 357 353 3 8 6 13 17 7 18 23 43 54 5 323 14 307 307 348 10 18 25 58 56 148 149 147 139 122 108 64 47 98 97 110 172 148 243 240 239 219 224 203 211 234 238
351 355 352 350 359 4 11 8 15 13 12 56 45 15 342 282 300 326 339 14 17 357 28 17 102 107 114 67 240 140 120 139 187 77 95 62 252 37 291 267 220 241 242 228 232 246 256
338 349 345 347 351 360 8 12 12 21 28 50 37 16 348 305 333 32 274 355 34 12 40 58 151 93 77 78 60 87 145 181 170 145 133 137 137 185 269 334 324 279 228 206 204 201 204
330 350 341 341 345 353 4 10 13 14 30 34 17 1 351 299 318 274 278 103 40 17 134 9 59 83 118 98 102 91 77 92 129 144 140 138 124 176 284 331 323 251 192 198 209 235 220
323 328 330 336 338 346 352 3 11 16 15 20 19 11 346 284 296 317 352 92 93 71 61 60 45 96 112 101 82 111 91 107 212 178 170 136 138 201 258 256 280 282 169 172 179 286 219
315 310 326 329 329 337 341 351 1 10 12 7 342 354 313 306 241 310 300 226 169 178 360 116 135 116 133 92 113 188 186 194 168 134 150 132 110 202 166 278 264 259 347 97 90 283 210
302 296 325 322 329 332 335 342 354 354 3 8 5 333 319 263 270 269 245 232 252 146 165 164 183 159 141 105 163 187 242 162 167 171 170 171 196 219 215 247 283 253 276 127 52 256 219
295 288 319 317 329 326 324 334 337 342 342 355 354 306 329 277 273 263 255 273 269 199 156 173 105 253 77 137 161 215 188 237 164 178 178 175 182 198 180 211 264 196 108 190 241 305 289
304 285 299 315 320 328 323 323 329 321 326 325 322 304 277 264 264 268 261 252 240 247 239 183 233 161 165 109 181 124 212 98 171 247 177 218 200 182 188 214 245 263 264 287 300 299 305
Height
1529 1526 1523 1519 1514 1509 1504 1499 1494 1489 1485 1481 1478 1474 1471 1469 1467 1464 1462 1460 1458 1457 1457 1458 1458 1461 1463 1467 1461 1460 1460 1462 1468 1471 1474 1479 1483 1487 1489 1490 1492 1493 1493 1493 1494 1495 1495
1528 1525 1520 1515 1511 1506 1501 1496 1490 1485 1480 1476 1472 1469 1466 1463 1460 1458 1456 1455 1453 1451 1452 1454 1455 1453 1457 1462 1457 1460 1460 1463 1465 1469 1473 1478 1480 1485 1487 1487 1490 1488 1491 1491 1492 1492 1493
1526 1522 1517 1511 1507 1502 1497 1491 1485 1480 1475 1470 1466 1464 1461 1457 1454 1453 1451 1449 1447 1446 1446 1448 1451 1448 1451 1452 1455 1458 1460 1462 1465 1468 1471 1475 1480 1484 1484 1485 1486 1488 1491 1491 1489 1489 1489
1523 1517 1513 1509 1503 1498 1493 1488 1482 1477 1472 1467 1463 1459 1455 1452 1450 1448 1446 1444 1442 1441 1441 1444 1446 1448 1449 1450 1453 1455 1459 1462 1464 1467 1472 1476 1480 1482 1483 1484 1485 1488 1491 1496 1486 1485 1485
1520 1515 1511 1506 1500 1494 1490 1485 1479 1474 1468 1463 1459 1455 1452 1449 1446 1444 1441 1439 1438 1437 1438 1441 1443 1445 1447 1446 1449 1453 1459 1461 1463 1466 1470 1474 1479 1481 1483 1486 1491 1490 1497 1497 1491 1480 1482
1517 1513 1508 1503 1497 1491 1487 1481 1475 1470 1465 1461 1456 1452 1449 1445 1442 1440 1438 1435 1432 1433 1434 1438 1440 1445 1441 1441 1445 1451 1456 1460 1462 1465 1470 1474 1477 1480 1483 1487 1497 1492 1496 1494 1491 1480 1479
1516 1511 1506 1500 1494 1488 1483 1477 1472 1467 1462 1458 1454 1450 1446 1443 1439 1436 1434 1431 1432 1432 1430 1428 1428 1432 1429 1438 1444 1450 1455 1459 1461 1464 1465 1471 1472 1475 1479 1479 1482 1483 1485 1489 1485 1481 1481
1514 1508 1503 1497 1491 1485 1480 1474 1469 1464 1458 1455 1451 1447 1443 1440 1436 1433 1432 1431 1431 1433 1430 1428 1430 1432 1428 1435 1442 1449 1455 1458 1461 1465 1466 1473 1474 1475 1479 1480 1484 1485 1487 1490 1484 1480 1481
1512 1506 1499 1494 1489 1483 1476 1471 1467 1461 1455 1451 1447 1443 1440 1437 1433 1431 1430 1429 1430 1430 1431 1428 1429 1431 1433 1438 1442 1448 1454 1456 1459 1465 1466 1468 1474 1473 1476 1478 1485 1487 1489 1489 1490 1484 1482
1510 1504 1499 1492 1485 1480 1473 1468 1465 1459 1453 1448 1444 1440 1436 1432 1430 1427 1427 1427 1429 1430 1432 1424 1427 1431 1435 1438 1445 1449 1454 1457 1459 1465 1466 1470 1471 1472 1477 1480 1483 1488 1486 1486 1489 1491 1498
1507 1501 1496 1489 1483 1478 1471 1465 1461 1456 1450 1444 1440 1436 1430 1425 1423 1423 1426 1426 1428 1430 1421 1430 1431 1432 1435 1439 1443 1452 1454 1456 1459 1461 1467 1473 1471 1472 1478 1479 1480 1486 1485 1488 1491 1496 1501
1507 1501 1494 1487 1481 1476 1470 1464 1459 1453 1447 1441 1437 1431 1425 1423 1422 1423 1425 1426 1430 1435 1415 1425 1425 1428 1436 1441 1445 1451 1454 1456 1459 1463 1468 1472 1471 1472 1475 1478 1478 1484 1487 1493 1497 1505 1521
1505 1500 1494 1486 1480 1474 1469 1462 1456 1450 1443 1437 1433 1429 1424 1422 1425 1425 1427 1430 1433 1431 1424 1427 1424 1430 1436 1442 1447 1452 1455 1458 1464 1469 1475 1476 1475 1474 1475 1481 1483 1487 1494 1521 1522 1528 1506
1505 1500 1494 1487 1480 1474 1468 1461 1455 1447 1439 1434 1432 1429 1428 1426 1429 1430 1432 1431 1432 1420 1420 1423 1426 1434 1440 1445 1451 1455 1457 1462 1463 1466 1478 1485 1485 1478 1476 1480 1486 1487 1491 1510 1505 1511 1503
1502 1498 1495 1487 1480 1473 1467 1461 1454 1446 1439 1437 1435 1432 1431 1432 1434 1432 1434 1433 1431 1427 1423 1424 1432 1443 1446 1450 1453 1457 1460 1461 1463 1464 1474 1487 1482 1476 1476 1477 1480 1489 1498 1494 1505 1504 1525
1501 1498 1493 1487 1479 1473 1466 1460 1453 1448 1442 1442 1439 1436 1436 1436 1437 1437 1437 1432 1435 1430 1427 1430 1443 1443 1449 1454 1457 1458 1463 1461 1462 1464 1465 1471 1486 1475 1477 1477 1480 1484 1487 1504 1513 1540 1506
1501 1495 1493 1487 1479 1473 1466 1460 1455 1449 1445 1443 1439 1440 1441 1440 1440 1440 1442 1443 1438 1435 1433 1433 1441 1442 1446 1451 1458 1458 1465 1461 1462 1463 1465 1465 1473 1483 1475 1481 1483 1487 1488 1493 1500 1512 1518
1500 1495 1492 1487 1481 1475 1467 1460 1455 1450 1446 1446 1442 1443 1443 1439 1444 1445 1446 1447 1444 1437 1433 1434 1437 1441 1447 1452 1458 1459 1463 1460 1458 1460 1466 1465 1471 1494 1482 1477 1477 1480 1484 1490 1511 1507 1508
1500 1495 1491 1487 1481 1476 1469 1461 1456 1452 1449 1446 1446 1445 1443 1440 1448 1445 1446 1444 1442 1435 1432 1431 1436 1438 1444 1450 1458 1456 1457 1455 1456 1461 1463 1465 1477 1494 1485 1480 1479 1480 1481 1481 1484 1488 1509
1500 1495 1491 1487 1482 1476 1471 1464 1459 1453 1450 1449 1449 1450 1446 1444 1445 1447 1445 1441 1437 1434 1432 1432 1436 1439 1444 1447 1448 1454 1455 1456 1457 1459 1462 1464 1476 1485 1487 1480 1478 1486 1478 1479 1483 1496 1481
1499 1495 1491 1488 1483 1477 1472 1467 1462 1457 1451 1451 1450 1455 1455 1454 1448 1448 1448 1446 1442 1441 1438 1438 1442 1442 1443 1445 1448 1453 1456 1459 1460 1461 1463 1466 1483 1482 1476 1474 1474 1477 1475 1477 1480 1471 1479
1498 1494 1490 1489 1483 1478 1473 1469 1463 1460 1455 1454 1456 1457 1456 1452 1449 1449 1448 1447 1446 1444 1442 1443 1445 1444 1443 1448 1449 1450 1455 1460 1461 1463 1465 1467 1483 1480 1474 1470 1472 1473 1467 1468 1467 1465 1461
1495 1494 1489 1488 1484 1480 1474 1470 1467 1463 1460 1459 1461 1460 1459 1453 1450 1450 1448 1446 1446 1445 1446 1446 1445 1446 1448 1450 1449 1449 1450 1452 1455 1461 1466 1470 1479 1477 1478 1469 1470 1466 1455 1454 1453 1452 1451
1494 1492 1489 1487 1484 1480 1477 1472 1468 1466 1464 1464 1464 1462 1461 1458 1453 1450 1446 1445 1446 1446 1447 1447 1446 1447 1451 1451 1452 1453 1454 1454 1456 1460 1461 1469 1474 1475 1475 1472 1476 1441 1437 1440 1443 1439 1437
1492 1490 1488 1485 1483 1480 1478 1474 1470 1467 1467 1465 1465 1464 1464 1461 1457 1449 1448 1447 1446 1446 1447 1448 1448 1449 1450 1451 1455 1457 1458 1458 1458 1459 1462 1464 1471 1473 1471 1465 1453 1435 1435 1438 1441 1435 1428
1490 1488 1487 1484 1482 1479 1477 1475 1471 1468 1466 1466 1465 1464 1464 1463 1455 1453 1450 1449 1449 1450 1449 1448 1450 1450 1450 1452 1455 1458 1455 1460 1458 1461 1462 1465 1465 1469 1466 1467 1455 1437 1432 1433 1435 1442 1424
1487 1485 1485 1482 1480 1478 1476 1474 1472 1469 1465 1464 1465 1464 1463 1461 1451 1451 1450 1447 1446 1447 1450 1448 1448 1450 1451 1455 1457 1459 1462 1450 1455 1456 1458 1463 1463 1462 1462 1460 1450 1434 1432 1433 1441 1437 1422
1483 1482 1482 1480 1478 1476 1474 1472 1471 1468 1465 1463 1463 1463 1463 1459 1448 1448 1447 1446 1445 1445 1447 1447 1450 1450 1452 1455 1457 1456 1458 1454 1453 1451 1454 1454 1458 1458 1458 1459 1457 1429 1433 1435 1428 1422 1420
1479 1478 1478 1477 1475 1472 1471 1469 1468 1467 1465 1463 1461 1460 1459 1458 1447 1443 1442 1442 1443 1444 1444 1444 1444 1443 1445 1451 1455 1454 1453 1451 1455 1455 1448 1449 1445 1448 1449 1443 1429 1428 1428 1426 1424 1422 1419